TITAN 3C TRANSTAGE DEB, 39298

Orbit data source: Space-Track

TITAN 3C TRANSTAGE DEB, 39298 is space debris in GEO originally from a launch on Thu, 26 Sep 1968 UTC launched from the Air Force Eastern Test Range (AFETR). Debris objects in space refer to the collection of defunct objects orbiting the Earth. Examples of debris include non-operational satellites, rocket bodies, and fragments generated from explosions, collisions, or faulty payload assembly.

Loading next visibility...
Identifier
39298, 1968-081AJ
Orbit
GEO
Country
Flag of USUS
Related business
Manufacturer
Unknown
Mission
Spacecraft
Bus & Motor
Unknown
Mass
Unknown
Launch date (UTC)
1968-09-26 (58 years ago)
Launch vehicle
Unknown
Launch site
Air Force Eastern Test Range (AFETR)
Object type
Payload
Rocket body
Debris
Shape & HBR
Unknown shape, 1.1 m
Radar Cross Section
RCS unknown

Expand to show TLE details & history
Last TLE update: 23 hours ago

TLE from 23 hours ago
0 TITAN 3C TRANSTAGE DEB
1 39298U 68081AJ  26111.54713155  .00000042  00000-0  00000+0 0  9991
2 39298   1.5849  22.7003 0151933 322.4817 286.3777  1.00132625 65712
Epoch: 2026-04-21T13:07Z
TLE epoch observation values (Epoch: 2026-04-21T13:07:52.165Z)
Latitude
-1.45573°
Longitude
-136.71436°
Altitude
35,656.413 km
Speed
3.086 km/s
True Right ascension
17h 59m 29s
True Declination
-1° 27' 15"
Sunlit
Object was in daylight at epoch
Visualization orbit readout
Latitude
Unknown
Longitude
Unknown
Altitude
Unknown
Speed
Unknown
Apparent Right ascension
Unknown
Apparent Declination
Unknown
Sunlit
N/A
Visualization observer readout
Local Sidereal Time
18:49:17
Azimuth
Unknown
Elevation
Unknown
Doppler factor
Unknown
Orbital elements
Apogee altitude
36,467.951 km
Perigee altitude
35,185.489 km
Semi-major axis
42,204.857 km
Eccentricity
0.01519
Inclination
1.5849°
RAAN
22.7003°
Arg. of periapsis
322.4817°
True anomaly
284.69857°
Mean anomaly
286.3777°
Eccentric anomaly
285.53901°
Mean motion
0.25032 °/min
Orbital period
1,438.15 mins
BSTAR
0
Loading maneuver chart data...
Computing Atmospheric mass density...

Documentation

Showing up to 5 results
|